Starlink 36917

operational
NORAD ID: 68059 Int'l Des: 2026-041 Owner: SPXS Country: US Constellation: starlink
NOTLE

Über Starlink 36917

Beschreibung wird geladen...

Live-Position

3D-Globus wird geladen...

Nächste Überflüge

Höhenverlauf

Altitude vs Time

uPlot chart will show altitude changes over time

Zweizeiliger Elementsatz

1 68059C 26041V 26061.43590278 .00458900 00000+0 61311-3 0 614
2 68059 53.1641 99.7107 0007872 277.5964 111.5616 16.05346758 14
Epoch: 2. März 2026 • Age: 26 hours

Aktueller Status

Höhe 266.4 km
Geschwindigkeit 7.75 km/s
Subsatellitenpunkt 43.67°N, 41.95°W
Startdatum 2. März 2026
Alter N/A
Typ internet

Technische Details

Klassifizierung Payload
Masse 575.00 kg
Trockenmasse 530.00 kg
Gesamtmasse 575.00 kg
Länge 0.30 m
Durchmesser 4.10 m
Spannweite 29.00 m
Form Box + pan
Hersteller SPXS
Bus-Typ Starlink V2MO
Phasenstatus In Orbit
Besitzer/Staat SPXS/US

Große Konstellationen

Loading constellations...